Location: 22
(39.7117°N, 89.5929°W)
Time: 14:41:21
(UTC-06:00)

ISS - Visible Passes

Search period start: 14 December 2018 00:00
Search period end: 24 December 2018 00:00
Orbit: 401 x 408 km, 51.6° (Epoch: 15 December)

Date Brightness Start Highest point End Pass type
(mag) Time Alt. Az. Time Alt. Az. Time Alt. Az.
14 Dec -0.7 18:01:55 10° W 18:04:00 16° SW 18:06:04 10° S visible
15 Dec -1.6 17:09:06 10° WNW 17:12:01 30° SW 17:14:55 10° SSE visible
22 Dec -0.8 06:12:08 10° S 06:14:35 20° SE 06:17:03 10° E visible
